This is the latest recevied weather packets stored in our database for station/object KJ5IIV. If no packets are shown the sender has not sent any weather packets the latest 10 day(s).
| Time | Temp. | Humidity | Pressure | Rain* | Wind** | Luminosity | Snow |
|---|---|---|---|---|---|---|---|
| 1778179667 | 21.67° C | 57% | 1017.2 hPa | 0 mm | - | 1001 W/m² | - |
| 1778179365 | 21.11° C | 55% | 1017.2 hPa | 0 mm | - | 854 W/m² | - |
| 1778179061 | 21.11° C | 59% | 1017.4 hPa | 0 mm | - | 805 W/m² | - |
| 1778178758 | 21.11° C | 59% | 1017.1 hPa | 0 mm | - | 480 W/m² | - |
| 1778178456 | 21.11° C | 57% | 1017.2 hPa | 0 mm | - | 667 W/m² | - |
| 1778178150 | 20.56° C | 59% | 1017.4 hPa | 0 mm | - | 568 W/m² | - |
| 1778177848 | 20.56° C | 61% | 1017.2 hPa | 0 mm | - | 604 W/m² | - |
| 1778177544 | 20° C | 60% | 1017.4 hPa | 0 mm | - | 471 W/m² | - |
| 1778177240 | 20° C | 62% | 1017.2 hPa | 0 mm | - | 389 W/m² | - |
| 1778176937 | 20° C | 61% | 1017.5 hPa | 0 mm | - | 374 W/m² | - |
| 1778176633 | 20° C | 61% | 1017.4 hPa | 0 mm | - | 342 W/m² | - |
| 1778176330 | 20° C | 62% | 1017.6 hPa | 0 mm | - | 353 W/m² | - |
| 1778176028 | 20° C | 60% | 1017.6 hPa | 0 mm | - | 470 W/m² | - |
| 1778175725 | 20.56° C | 59% | 1017.5 hPa | 0 mm | - | 532 W/m² | - |
| 1778175422 | 20° C | 61% | 1017.8 hPa | 0 mm | - | 415 W/m² | - |
| 1778175119 | 20° C | 60% | 1018.2 hPa | 0 mm | - | 354 W/m² | - |
| 1778174816 | 20.56° C | 59% | 1018.2 hPa | 0 mm | - | 466 W/m² | - |
| 1778174513 | 20.56° C | 60% | 1018.1 hPa | 0 mm | - | 892 W/m² | - |
| 1778174213 | 20.56° C | 57% | 1018.4 hPa | 0 mm | - | 992 W/m² | - |
| 1778173910 | 20° C | 59% | 1018.6 hPa | 0 mm | - | 1023 W/m² | - |
| 1778173607 | 20.56° C | 58% | 1018.4 hPa | 0 mm | - | 342 W/m² | - |
| 1778173304 | 20.56° C | 58% | 1018.8 hPa | 0 mm | - | 691 W/m² | - |
| 1778173000 | 20° C | 59% | 1018.7 hPa | 0 mm | - | 914 W/m² | - |
| 1778172696 | 20° C | 60% | 1018.7 hPa | 0 mm | - | 918 W/m² | - |
| 1778172392 | 20° C | 58% | 1018.8 hPa | 0 mm | - | 912 W/m² | - |
* Rain latest hour (hover to see other rain measurements)
** Current wind speed in m/s (hover to see current wind gust speed)